Location: DARK SKY Beskydy - Park tmavé oblohy, www.darkskybeskydy.cz
(49.4926°N, 18.5016°E)
Time: 19:19:47
(UTC+02:00)

Vanguard 2 - All Passes

Search period start: 25 July 2024 00:00
Search period end: 04 August 2024 00:00
Orbit: 552 x 2913 km, 32.9° (Epoch: 25 July)

Date Brightness Start Highest point End Pass type
(mag) Time Alt. Az. Time Alt. Az. Time Alt. Az.
30 Jul - 19:50:40 10° SSW 19:52:12 11° S 19:53:38 10° SSE daylight
31 Jul - 17:57:16 10° S 17:58:46 11° S 18:00:09 10° SSE daylight
31 Jul - 20:03:57 10° SSW 20:06:01 12° S 20:07:52 10° SSE daylight
01 Aug - 18:09:19 10° SSW 18:12:38 13° S 18:15:25 10° SE daylight
01 Aug - 20:17:38 10° SW 20:19:48 12° S 20:21:45 10° SSE daylight
02 Aug - 16:17:27 10° S 16:18:45 10° SSE 16:19:58 10° SSE daylight
02 Aug - 18:22:15 10° SSW 18:26:29 16° S 18:29:52 10° SE daylight
02 Aug - 20:31:38 10° SW 20:33:33 12° SSW 20:35:18 10° S daylight
03 Aug - 16:28:11 10° SSW 16:32:37 14° SSE 16:36:17 10° SE daylight
03 Aug - 18:35:33 10° SW 18:40:19 17° S 18:44:01 10° SE daylight
03 Aug - 20:46:06 10° SSW 20:47:16 11° SSW 20:48:21 10° S daylight
